• In Czech Republic
  • List of Countries
  • For 7 days
  • Water Temperature
  • Satellite Maps
  • Weather Map
  • Weather Widgets
  • user-avatar
    Login

    Hourly Weather Papalotla

    Today, 17 October, Wednesday

    Time Temperature Precipitation Wind Pressure Humidity
    00:00 +13°C° 0 mm 2 mps 579 mmHg 88%
    01:00 +13°C° 0 mm 2 mps 578 mmHg 88%
    02:00 +13°C° 0 mm 2 mps 578 mmHg 89%
    03:00 +13°C° 0 mm 2 mps 578 mmHg 89%
    04:00 +13°C° 0 mm 2 mps 578 mmHg 89%
    05:00 +12°C° 0 mm 2 mps 578 mmHg 89%
    06:00 +14°C° 0.1 mm 2 mps 579 mmHg 85%
    07:00 +14°C° 0.1 mm 3 mps 580 mmHg 81%
    08:00 +16°C° 0.1 mm 3 mps 581 mmHg 77%
    09:00 +16°C° 0.7 mm 3 mps 581 mmHg 78%
    10:00 +16°C° 0.7 mm 3 mps 581 mmHg 79%
    11:00 +16°C° 0.7 mm 3 mps 580 mmHg 81%
    12:00 +16°C° 1 mm 3 mps 580 mmHg 81%
    13:00 +16°C° 1 mm 3 mps 579 mmHg 82%
    14:00 +16°C° 1 mm 3 mps 579 mmHg 82%
    15:00 +14°C° 0.3 mm 3 mps 579 mmHg 83%
    16:00 +14°C° 0.3 mm 3 mps 579 mmHg 85%
    17:00 +14°C° 0.3 mm 3 mps 579 mmHg 86%
    18:00 +13°C° 0.1 mm 3 mps 579 mmHg 87%
    19:00 +13°C° 0.1 mm 3 mps 580 mmHg 87%
    20:00 +13°C° 0.1 mm 3 mps 580 mmHg 88%
    21:00 +13°C° 0.1 mm 3 mps 580 mmHg 88%
    22:00 +13°C° 0.1 mm 3 mps 580 mmHg 89%
    23:00 +12°C° 0.1 mm 3 mps 580 mmHg 89%

    Tomorrow, 18 October, Thursday

    Time Temperature Precipitation Wind Pressure Humidity
    00:00 +12°C° 0 mm 3 mps 579 mmHg 90%
    01:00 +12°C° 0 mm 3 mps 579 mmHg 90%
    02:00 +12°C° 0 mm 3 mps 579 mmHg 91%
    03:00 +12°C° 0 mm 3 mps 579 mmHg 90%
    04:00 +12°C° 0 mm 3 mps 579 mmHg 90%
    05:00 +12°C° 0 mm 3 mps 579 mmHg 90%
    06:00 +13°C° 0 mm 4 mps 580 mmHg 84%
    07:00 +14°C° 0 mm 4 mps 581 mmHg 79%
    08:00 +16°C° 0 mm 5 mps 582 mmHg 74%
    09:00 +16°C° 0.1 mm 5 mps 582 mmHg 72%
    10:00 +17°C° 0.1 mm 5 mps 582 mmHg 70%
    11:00 +17°C° 0.1 mm 5 mps 582 mmHg 68%
    12:00 +18°C° 0.1 mm 4 mps 581 mmHg 68%
    13:00 +18°C° 0.1 mm 4 mps 581 mmHg 68%
    14:00 +19°C° 0.1 mm 4 mps 580 mmHg 67%
    15:00 +18°C° 0.1 mm 4 mps 580 mmHg 71%
    16:00 +17°C° 0.1 mm 3 mps 579 mmHg 75%
    17:00 +16°C° 0.1 mm 3 mps 579 mmHg 79%
    18:00 +14°C° 0 mm 3 mps 579 mmHg 82%
    19:00 +13°C° 0 mm 3 mps 579 mmHg 84%
    20:00 +13°C° 0 mm 3 mps 580 mmHg 86%
    21:00 +13°C° 0 mm 3 mps 580 mmHg 86%
    22:00 +13°C° 0 mm 3 mps 580 mmHg 86%
    23:00 +13°C° 0 mm 3 mps 580 mmHg 86%

    Day after tomorrow, 19 October, Friday

    Time Temperature Precipitation Wind Pressure Humidity
    00:00 +12°C° 0 mm 3 mps 579 mmHg 86%
    01:00 +12°C° 0 mm 3 mps 579 mmHg 86%
    02:00 +12°C° 0 mm 3 mps 578 mmHg 86%
    03:00 +12°C° 0 mm 3 mps 578 mmHg 87%
    04:00 +12°C° 0 mm 3 mps 578 mmHg 87%
    05:00 +12°C° 0 mm 3 mps 578 mmHg 88%
    06:00 +13°C° 0 mm 3 mps 579 mmHg 84%
    07:00 +14°C° 0 mm 3 mps 580 mmHg 80%
    08:00 +16°C° 0 mm 3 mps 581 mmHg 77%
    09:00 +17°C° 0.1 mm 4 mps 581 mmHg 73%
    10:00 +18°C° 0.1 mm 4 mps 581 mmHg 69%
    11:00 +20°C° 0.1 mm 4 mps 582 mmHg 66%
    12:00 +20°C° 0.3 mm 4 mps 581 mmHg 65%
    13:00 +20°C° 0.3 mm 4 mps 580 mmHg 65%
    14:00 +20°C° 0.3 mm 3 mps 580 mmHg 65%
    15:00 +18°C° 0.3 mm 3 mps 579 mmHg 70%
    16:00 +17°C° 0.3 mm 3 mps 579 mmHg 74%
    17:00 +16°C° 0.3 mm 3 mps 579 mmHg 79%
    18:00 +16°C° 0.1 mm 3 mps 579 mmHg 81%
    19:00 +14°C° 0.1 mm 3 mps 579 mmHg 84%
    20:00 +13°C° 0.1 mm 3 mps 579 mmHg 86%
    21:00 +13°C° 0 mm 3 mps 579 mmHg 87%
    22:00 +13°C° 0 mm 3 mps 579 mmHg 87%
    23:00 +13°C° 0 mm 3 mps 579 mmHg 88%

    20 October, Saturday

    Time Temperature Precipitation Wind Pressure Humidity
    00:00 +12°C° 0 mm 3 mps 578 mmHg 88%
    01:00 +12°C° 0 mm 3 mps 578 mmHg 88%
    02:00 +12°C° 0 mm 3 mps 578 mmHg 88%
    03:00 +12°C° 0 mm 3 mps 578 mmHg 88%
    04:00 +12°C° 0 mm 3 mps 578 mmHg 88%
    05:00 +12°C° 0 mm 3 mps 578 mmHg 87%
    06:00 +13°C° 0 mm 3 mps 579 mmHg 85%
    07:00 +14°C° 0 mm 3 mps 580 mmHg 83%
    08:00 +14°C° 0 mm 3 mps 580 mmHg 81%
    09:00 +16°C° 0.1 mm 3 mps 580 mmHg 79%
    10:00 +17°C° 0.1 mm 3 mps 580 mmHg 77%
    11:00 +17°C° 0.1 mm 3 mps 580 mmHg 75%
    12:00 +17°C° 0.6 mm 3 mps 580 mmHg 77%
    13:00 +17°C° 0.6 mm 3 mps 579 mmHg 78%
    14:00 +16°C° 0.6 mm 3 mps 579 mmHg 80%
    15:00 +16°C° 0.2 mm 3 mps 579 mmHg 82%
    16:00 +14°C° 0.2 mm 3 mps 579 mmHg 83%
    17:00 +14°C° 0.2 mm 3 mps 579 mmHg 85%
    18:00 +14°C° 0.1 mm 3 mps 579 mmHg 86%
    19:00 +13°C° 0.1 mm 3 mps 579 mmHg 87%
    20:00 +14°C° 0.1 mm 2 mps 580 mmHg 87%
    21:00 +14°C° 0.1 mm 2 mps 580 mmHg 88%
    22:00 +14°C° 0.1 mm 2 mps 579 mmHg 89%
    23:00 +14°C° 0.1 mm 2 mps 579 mmHg 89%

    21 October, Sunday

    Time Temperature Precipitation Wind Pressure Humidity
    00:00 +14°C° 0.1 mm 2 mps 579 mmHg 89%
    01:00 +14°C° 0.1 mm 2 mps 579 mmHg 90%
    02:00 +14°C° 0.1 mm 2 mps 578 mmHg 90%
    03:00 +14°C° 0.1 mm 2 mps 579 mmHg 90%
    04:00 +14°C° 0.1 mm 2 mps 579 mmHg 90%
    05:00 +14°C° 0.1 mm 2 mps 579 mmHg 90%
    06:00 +14°C° 0.1 mm 2 mps 580 mmHg 87%
    07:00 +15°C° 0.1 mm 2 mps 580 mmHg 84%
    08:00 +16°C° 0.1 mm 2 mps 581 mmHg 81%
    09:00 +17°C° 0.1 mm 3 mps 581 mmHg 76%
    10:00 +18°C° 0.1 mm 3 mps 581 mmHg 72%
    11:00 +19°C° 0.1 mm 3 mps 581 mmHg 68%
    12:00 +18°C° 0.3 mm 3 mps 580 mmHg 72%
    13:00 +17°C° 0.3 mm 3 mps 580 mmHg 76%
    14:00 +17°C° 0.3 mm 2 mps 579 mmHg 80%
    15:00 +16°C° 0.2 mm 2 mps 579 mmHg 82%
    16:00 +16°C° 0.2 mm 2 mps 579 mmHg 84%
    17:00 +15°C° 0.2 mm 2 mps 579 mmHg 85%
    18:00 +15°C° 0.1 mm 2 mps 579 mmHg 86%
    19:00 +15°C° 0.1 mm 2 mps 580 mmHg 87%
    20:00 +14°C° 0.1 mm 2 mps 580 mmHg 87%
    21:00 +14°C° 0.2 mm 2 mps 580 mmHg 88%
    22:00 +14°C° 0.2 mm 2 mps 580 mmHg 88%
    23:00 +14°C° 0.2 mm 2 mps 579 mmHg 89%

    22 October, Monday

    Time Temperature Precipitation Wind Pressure Humidity
    00:00 +14°C° 0.1 mm 2 mps 579 mmHg 89%
    01:00 +14°C° 0.1 mm 2 mps 579 mmHg 89%
    02:00 +14°C° 0.1 mm 2 mps 579 mmHg 90%
    03:00 +13°C° 0 mm 2 mps 579 mmHg 90%
    04:00 +13°C° 0 mm 2 mps 579 mmHg 90%
    05:00 +13°C° 0 mm 2 mps 579 mmHg 91%
    06:00 +14°C° 0 mm 2 mps 580 mmHg 86%
    07:00 +15°C° 0 mm 1 mps 581 mmHg 82%
    08:00 +16°C° 0 mm 1 mps 582 mmHg 77%
    09:00 +18°C° 0 mm 1 mps 582 mmHg 74%
    10:00 +18°C° 0 mm 2 mps 582 mmHg 72%
    11:00 +19°C° 0 mm 2 mps 582 mmHg 69%
    12:00 +19°C° 0.2 mm 2 mps 581 mmHg 68%
    13:00 +19°C° 0.2 mm 2 mps 581 mmHg 68%
    14:00 +19°C° 0.2 mm 2 mps 581 mmHg 68%
    15:00 +19°C° 0.4 mm 1 mps 581 mmHg 73%
    16:00 +19°C° 0.4 mm 1 mps 580 mmHg 77%
    17:00 +18°C° 0.4 mm 1 mps 580 mmHg 82%
    18:00 +16°C° 0.2 mm 1 mps 580 mmHg 84%
    19:00 +16°C° 0.2 mm 1 mps 581 mmHg 86%
    20:00 +15°C° 0.2 mm 1 mps 581 mmHg 88%
    21:00 +15°C° 0.1 mm 1 mps 581 mmHg 89%
    22:00 +15°C° 0.1 mm 1 mps 580 mmHg 89%
    23:00 +14°C° 0.1 mm 1 mps 580 mmHg 90%
    Show more